CHEFSAT 2 (44044 NORAD) Tracking and Keplerian Element Data

This shows tracking and keplerian element data for the satellite.

Feedback or suggestion? Click here.




ElementValue
Catalog44044
NameCHEFSAT 2
Epoch Orbit328
Epoch Day65.72589469
Epoch Year2019
RAAN154.1689
Inclination51.6394
Eccentricity0.0012348
Argument of Perigee69.5628
Mean Anonmoly290.6679
Mean Motion15.34457093
Decay Rate4.149E-05
L11 44044U 18092E 19065.72589469 .00004149 00000-0 13344-3 0 9993
L22 44044 51.6394 154.1689 0012348 69.5628 290.6679 15.34457093 3287

Live tracking and technical data element details for CHEFSAT 2 (NORAD 44044). CHEFSAT 2 can be tracked NOW for your location showing map with azimuth and elevation plus other details from your city location.

Track the satellite on the map from your city or location and see movement details for azimuth, elevation, latitude, longitude, range, height, and movement on the map or in text.







IsCatalogInMostPopularTable: catalog: 44044, numindb: 78
Update: records affected: 1



GetName: 44044 CHEFSAT 2

Hit Count: updated at: Mon, 22 Jul 2019 04:32:56 GMT